Regional Weather Roundup
Issued by NWS

Home | Current Version | Previous Version | Graphics & Text | Print | Product List | Glossary On
Versions: 1 2 3 4 5 6 7 8 9 10 11 12 13 14 15 16 17 18 19 20 21 22 23 24 25 26 27 28 29 30 31 32 33 34 35 36 37 38 39 40 41 42 43 44 45 46 47 48 49 50
000
ASUS43 KLMK 190810
RWRKY
KENTUCKY REGIONAL WEATHER ROUNDUP
NATIONAL WEATHER SERVICE LOUISVILLE KY
300 AM EST SUN FEB 19 2017

NOTE "FAIR" INDICATES FEW OR NO CLOUDS BELOW 12,000 FEET
WITH NO SIGNIFICANT WEATHER AND/OR OBSTRUCTIONS TO VISIBILITY.

KYZ001>023-026-027-061>063-070>075-190900-
WESTERN AND SOUTH CENTRAL KENTUCKY

CITY           SKY/WX    TMP DP  RH WIND       PRES   REMARKS
PADUCAH        FOG       44  42  93 CALM      29.97R VSB 1/4
HENDERSON      CLOUDY    41  37  87 CALM      29.96R VSB 1/4
OWENSBORO      FOG       48  48 100 S5        29.98R VSB 1/4
HOPKINSVILLE   FOG       46  46 100 CALM      29.98R VSB 1/4
BOWLING GREEN  PTCLDY    46  44  93 CALM      29.99R FOG
GLASGOW        MOCLDY   N/A N/A N/A CALM      29.98S
$$

KYZ024-025-028>034-038-045-046-053-190900-
NORTH CENTRAL KENTUCKY

CITY           SKY/WX    TMP DP  RH WIND       PRES   REMARKS
LOUISVILLE/SDF CLOUDY    51  47  86 SW5       29.97S
LOUISVILLE/LOU MOCLDY    50  47  89 SW5       29.98R
FORT KNOX      CLOUDY    48  48 100 S3        29.96S
$$

KYZ035>037-039>044-047>052-055>060-089>105-190900-
NORTHEAST KENTUCKY

CITY           SKY/WX    TMP DP  RH WIND       PRES   REMARKS
LEXINGTON      CLOUDY    47  44  90 SW7       29.98R
COVINGTON      CLEAR     49  45  86 SW6       29.94R
FRANKFORT      CLOUDY    48  45  89 SW3       29.97R FOG
$$

KYZ054-064>069-076>088-106>120-190900-
SOUTHEAST KENTUCKY

CITY           SKY/WX    TMP DP  RH WIND       PRES   REMARKS
JACKSON        CLOUDY    47  45  93 CALM      29.99R
LONDON         CLOUDY    47  45  93 CALM      30.00R FOG
SOMERSET       CLOUDY    45  45 100 CALM      30.02R
MIDDLESBORO    CLOUDY    47  47 100 CALM      30.01R FOG
MONTICELLO     CLOUDY    48  46  93 VRB6      30.02R
$$





USA.gov is the U.S. government's official web portal to all federal, state and local government web resources and services.